FW3950 Weather Reports


Display with metric or nautical units.
time (UTC)temp
F
wind
direction
speed
MPH
gust
MPH
rain 1hr
in
rain 24hr
in
rain mn
in
humidity
%
barometer
mb
20190919170846 66 59 2.0 4.0 0.00 0.00 0.00 55 1027.1
20190919170731 66 13 2.0 4.0 0.00 0.00 0.00 55 1027.1
20190919170613 66 360 1.0 4.0 0.00 0.00 0.00 55 1027.1
20190919170454 66 211 1.0 3.0 0.00 0.00 0.00 54 1027.1
20190919170337 66 211 2.0 3.0 0.00 0.00 0.00 54 1027.1
20190919170224 66 192 1.0 3.0 0.00 0.00 0.00 56 1027.1
20190919170025 66 73 0.0 5.0 0.00 0.00 0.00 55 1027.1
20190919165906 66 76 1.0 5.0 0.00 0.00 0.00 54 1027.2
20190919165750 66 76 1.0 8.0 0.00 0.00 0.00 54 1027.2
20190919165634 65 60 1.0 8.0 0.00 0.00 0.00 55 1027.2
20190919165512 65 40 1.0 10.0 0.00 0.00 0.00 56 1027.3
20190919165357 65 40 3.0 10.0 0.00 0.00 0.00 57 1027.3
20190919165238 65 78 4.0 10.0 0.00 0.00 0.00 56 1027.3
20190919165121 65 342 3.0 10.0 0.00 0.00 0.00 56 1027.3
20190919164959 65 360 5.0 10.0 0.00 0.00 0.00 57 1027.4
20190919164841 66 63 7.0 10.0 0.00 0.00 0.00 57 1027.3
20190919164726 66 61 6.0 10.0 0.00 0.00 0.00 57 1027.3
20190919164609 66 49 6.0 8.0 0.00 0.00 0.00 60 1027.3
20190919164445 66 26 4.0 8.0 0.00 0.00 0.00 56 1027.4
20190919164331 66 29 2.0 7.0 0.00 0.00 0.00 56 1027.4
20190919164214 66 57 3.0 5.0 0.00 0.00 0.00 56 1027.4
20190919164056 66 57 3.0 5.0 0.00 0.00 0.00 57 1027.4
20190919163933 66 43 2.0 4.0 0.00 0.00 0.00 59 1027.4
20190919163816 66 46 1.0 4.0 0.00 0.00 0.00 58 1027.5
20190919163702 65 11 1.0 4.0 0.00 0.00 0.00 58 1027.5
20190919163544 65 11 1.0 6.0 0.00 0.00 0.00 59 1027.5
20190919163427 65 298 1.0 6.0 0.00 0.00 0.00 58 1027.5
20190919163310 65 315 1.0 6.0 0.00 0.00 0.00 57 1027.5
20190919163154 65 313 0.0 6.0 0.00 0.00 0.00 58 1027.5
20190919163039 65 313 1.0 8.0 0.00 0.00 0.00 57 1027.5
20190919162920 64 129 2.0 8.0 0.00 0.00 0.00 57 1027.5
20190919162804 64 112 3.0 8.0 0.00 0.00 0.00 56 1027.6
20190919162652 64 109 2.0 8.0 0.00 0.00 0.00 57 1027.6
20190919162532 64 90 2.0 8.0 0.00 0.00 0.00 56 1027.6
20190919162417 64 78 4.0 8.0 0.00 0.00 0.00 58 1027.6
20190919162258 64 71 6.0 8.0 0.00 0.00 0.00 56 1027.6
20190919162143 64 39 4.0 8.0 0.00 0.00 0.00 58 1027.6
20190919162031 64 11 2.0 5.0 0.00 0.00 0.00 58 1027.6
20190919161913 64 346 3.0 6.0 0.00 0.00 0.00 58 1027.6
20190919161755 64 343 3.0 7.0 0.00 0.00 0.00 59 1027.6
20190919161637 64 288 3.0 7.0 0.00 0.00 0.00 58 1027.7
20190919161514 64 250 1.0 10.0 0.00 0.00 0.00 58 1027.6
20190919161357 64 321 1.0 10.0 0.00 0.00 0.00 58 1027.7
20190919161242 64 321 3.0 10.0 0.00 0.00 0.00 58 1027.7
20190919161126 64 314 5.0 10.0 0.00 0.00 0.00 59 1027.7
20190919161002 64 333 3.0 10.0 0.00 0.00 0.00 58 1027.7
20190919160847 64 5 3.0 10.0 0.00 0.00 0.00 59 1027.8
20190919160732 64 67 5.0 10.0 0.00 0.00 0.00 58 1027.8
20190919160617 64 63 5.0 10.0 0.00 0.00 0.00 61 1027.8
20190919160453 64 28 3.0 10.0 0.00 0.00 0.00 60 1027.8
20190919160339 63 63 3.0 10.0 0.00 0.00 0.00 58 1027.7
20190919160220 63 90 5.0 10.0 0.00 0.00 0.00 58 1027.8
20190919160105 64 75 7.0 10.0 0.00 0.00 0.00 58 1027.8
20190919155910 64 82 5.0 10.0 0.00 0.00 0.00 58 1027.8
20190919155754 63 68 3.0 10.0 0.00 0.00 0.00 58 1027.8
20190919155636 63 130 2.0 10.0 0.00 0.00 0.00 59 1027.9
20190919155514 63 88 4.0 10.0 0.00 0.00 0.00 58 1027.9
20190919155356 63 117 7.0 10.0 0.00 0.00 0.00 59 1027.9
20190919155242 63 89 7.0 10.0 0.00 0.00 0.00 60 1027.9
20190919155125 63 93 3.0 9.0 0.00 0.00 0.00 61 1027.9
20190919155006 63 104 4.0 9.0 0.00 0.00 0.00 59 1027.8
20190919154850 63 108 4.0 9.0 0.00 0.00 0.00 60 1027.9
20190919154739 63 76 3.0 9.0 0.00 0.00 0.00 60 1027.9
20190919154622 63 76 1.0 9.0 0.00 0.00 0.00 59 1027.9
20190919154459 63 60 5.0 9.0 0.00 0.00 0.00 59 1027.8
20190919154341 63 68 7.0 9.0 0.00 0.00 0.00 58 1027.9
20190919154223 63 81 5.0 9.0 0.00 0.00 0.00 60 1027.9
20190919154108 63 96 5.0 9.0 0.00 0.00 0.00 61 1027.9
20190919153948 62 89 6.0 9.0 0.00 0.00 0.00 60 1027.9
20190919153832 62 51 4.0 8.0 0.00 0.00 0.00 62 1027.9
20190919153719 62 73 2.0 7.0 0.00 0.00 0.00 61 1027.9
20190919153602 62 113 2.0 7.0 0.00 0.00 0.00 61 1027.9
20190919153438 62 95 5.0 7.0 0.00 0.00 0.00 62 1027.9
20190919153323 62 53 6.0 7.0 0.00 0.00 0.00 62 1027.9
20190919153207 62 46 5.0 8.0 0.00 0.00 0.00 64 1027.9
20190919153057 62 64 4.0 7.0 0.00 0.00 0.00 63 1027.9
20190919152932 62 55 3.0 7.0 0.00 0.00 0.00 63 1027.9
20190919152815 62 86 2.0 7.0 0.00 0.00 0.00 63 1027.8
20190919152700 62 78 2.0 7.0 0.00 0.00 0.00 64 1027.8
20190919152542 62 59 2.0 9.0 0.00 0.00 0.00 64 1027.9
20190919152424 61 63 4.0 9.0 0.00 0.00 0.00 65 1027.9
20190919152307 61 64 4.0 9.0 0.00 0.00 0.00 67 1027.9
20190919152150 61 52 5.0 9.0 0.00 0.00 0.00 67 1027.9
20190919152035 61 355 4.0 9.0 0.00 0.00 0.00 65 1028.0
20190919151919 61 24 4.0 9.0 0.00 0.00 0.00 66 1028.0
20190919151808 61 5 5.0 9.0 0.00 0.00 0.00 65 1028.0
20190919151649 61 67 4.0 9.0 0.00 0.00 0.00 65 1028.0
20190919151533 61 61 2.0 7.0 0.00 0.00 0.00 65 1028.0
20190919151419 62 27 2.0 7.0 0.00 0.00 0.00 64 1028.0
20190919151304 62 27 3.0 7.0 0.00 0.00 0.00 64 1028.0
20190919151149 62 30 4.0 7.0 0.00 0.00 0.00 64 1028.0
20190919151027 62 60 5.0 7.0 0.00 0.00 0.00 63 1028.0
20190919150908 62 70 4.0 7.0 0.00 0.00 0.00 62 1028.0
20190919150754 62 57 1.0 8.0 0.00 0.00 0.00 62 1028.0
20190919150639 62 57 2.0 8.0 0.00 0.00 0.00 62 1028.0
20190919150516 62 57 5.0 8.0 0.00 0.00 0.00 66 1028.0
20190919150356 62 48 5.0 7.0 0.00 0.00 0.00 66 1028.0
20190919150239 61 19 2.0 9.0 0.00 0.00 0.00 67 1027.9
20190919150123 61 51 1.0 9.0 0.00 0.00 0.00 67 1027.9
20190919145926 61 63 3.0 9.0 0.00 0.00 0.00 66 1027.9
20190919145815 61 57 3.0 9.0 0.00 0.00 0.00 66 1027.9
20190919145656 61 71 3.0 10.0 0.00 0.00 0.00 66 1028.0
20190919145539 61 53 5.0 10.0 0.00 0.00 0.00 66 1028.0
20190919145424 61 5 5.0 10.0 0.00 0.00 0.00 67 1028.0
20190919145304 61 15 5.0 10.0 0.00 0.00 0.00 66 1028.0
20190919145148 61 38 6.0 10.0 0.00 0.00 0.00 66 1028.0
20190919145026 61 38 6.0 10.0 0.00 0.00 0.00 68 1028.0
20190919144910 61 18 6.0 10.0 0.00 0.00 0.00 67 1028.0
20190919144755 60 350 4.0 9.0 0.00 0.00 0.00 67 1028.0
20190919144639 60 42 4.0 9.0 0.00 0.00 0.00 67 1028.0
20190919144517 61 47 5.0 9.0 0.00 0.00 0.00 67 1028.0
20190919144403 61 54 6.0 9.0 0.00 0.00 0.00 68 1028.0
20190919144246 61 9 6.0 9.0 0.00 0.00 0.00 68 1028.0
20190919144132 61 12 6.0 9.0 0.00 0.00 0.00 67 1028.0
20190919144009 60 11 4.0 9.0 0.00 0.00 0.00 67 1028.0
20190919143851 60 360 2.0 9.0 0.00 0.00 0.00 68 1028.1
20190919143734 60 360 4.0 9.0 0.00 0.00 0.00 69 1028.1
20190919143615 60 346 4.0 9.0 0.00 0.00 0.00 67 1028.1
20190919143453 60 17 5.0 9.0 0.00 0.00 0.00 67 1028.1
20190919143338 60 5 5.0 9.0 0.00 0.00 0.00 68 1028.1
20190919143222 60 29 5.0 9.0 0.00 0.00 0.00 66 1028.1
20190919143106 60 10 6.0 9.0 0.00 0.00 0.00 66 1028.1
20190919142945 61 15 6.0 9.0 0.00 0.00 0.00 66 1028.1
20190919142827 61 5 5.0 9.0 0.00 0.00 0.00 66 1028.1
20190919142708 61 27 5.0 9.0 0.00 0.00 0.00 68 1028.2
20190919142551 61 344 6.0 9.0 0.00 0.00 0.00 67 1028.1
20190919142432 61 9 5.0 9.0 0.00 0.00 0.00 68 1028.1
20190919142315 61 13 4.0 9.0 0.00 0.00 0.00 69 1028.2
20190919142159 60 23 3.0 11.0 0.00 0.00 0.00 69 1028.2
20190919142040 60 350 3.0 11.0 0.00 0.00 0.00 69 1028.2
20190919141923 60 347 4.0 11.0 0.00 0.00 0.00 68 1028.2
20190919141807 60 336 4.0 11.0 0.00 0.00 0.00 68 1028.2
20190919141650 60 341 4.0 11.0 0.00 0.00 0.00 69 1028.2
20190919141534 60 36 7.0 11.0 0.00 0.00 0.00 67 1028.2
20190919141418 60 11 8.0 11.0 0.00 0.00 0.00 67 1028.2
20190919141304 60 355 6.0 10.0 0.00 0.00 0.00 68 1028.2
20190919141147 60 12 5.0 9.0 0.00 0.00 0.00 68 1028.2
20190919141025 60 5 5.0 9.0 0.00 0.00 0.00 67 1028.2
20190919140908 60 36 4.0 10.0 0.00 0.00 0.00 69 1028.3
20190919140756 60 36 4.0 10.0 0.00 0.00 0.00 69 1028.2
20190919140638 60 61 2.0 10.0 0.00 0.00 0.00 71 1028.2
20190919140516 59 339 5.0 10.0 0.00 0.00 0.00 71 1028.1
20190919140359 59 343 5.0 10.0 0.00 0.00 0.00 69 1028.1
20190919140243 59 5 6.0 12.0 0.00 0.00 0.00 70 1028.0
20190919140126 59 9 7.0 12.0 0.00 0.00 0.00 69 1028.1
20190919135929 59 5 6.0 12.0 0.00 0.00 0.00 69 1028.1
20190919135811 59 11 7.0 12.0 0.00 0.00 0.00 69 1028.0
20190919135653 59 355 6.0 12.0 0.00 0.00 0.00 70 1028.0
20190919135536 59 5 7.0 12.0 0.00 0.00 0.00 69 1028.0
20190919135421 59 342 8.0 12.0 0.00 0.00 0.00 69 1028.0
20190919135306 59 12 6.0 10.0 0.00 0.00 0.00 71 1028.0
20190919135154 58 355 6.0 11.0 0.00 0.00 0.00 71 1028.0
20190919135037 58 46 6.0 11.0 0.00 0.00 0.00 70 1028.0
20190919134924 58 25 6.0 11.0 0.00 0.00 0.00 70 1028.0
20190919134806 58 37 7.0 11.0 0.00 0.00 0.00 70 1027.9
20190919134650 58 360 7.0 11.0 0.00 0.00 0.00 70 1028.0
20190919134532 58 347 7.0 11.0 0.00 0.00 0.00 69 1028.0
20190919134416 58 336 8.0 11.0 0.00 0.00 0.00 70 1028.0
20190919134259 58 342 7.0 10.0 0.00 0.00 0.00 71 1028.0
20190919134140 58 5 7.0 10.0 0.00 0.00 0.00 70 1027.9
20190919134016 58 351 7.0 10.0 0.00 0.00 0.00 70 1028.0
20190919133859 58 346 8.0 10.0 0.00 0.00 0.00 69 1028.0
20190919133741 58 12 7.0 10.0 0.00 0.00 0.00 70 1028.0
20190919133625 58 21 5.0 10.0 0.00 0.00 0.00 73 1028.0
20190919133506 58 343 4.0 9.0 0.00 0.00 0.00 73 1028.0
20190919133347 58 349 5.0 9.0 0.00 0.00 0.00 71 1028.0
20190919133228 58 44 6.0 9.0 0.00 0.00 0.00 70 1028.0
20190919133113 58 55 5.0 11.0 0.00 0.00 0.00 72 1028.0
20190919132949 58 5 6.0 11.0 0.00 0.00 0.00 72 1028.0
20190919132831 57 5 5.0 11.0 0.00 0.00 0.00 73 1027.9
20190919132716 57 5 4.0 11.0 0.00 0.00 0.00 73 1028.0
20190919132600 57 22 5.0 11.0 0.00 0.00 0.00 73 1028.0
20190919132440 57 42 6.0 11.0 0.00 0.00 0.00 73 1028.0
20190919132323 57 36 7.0 11.0 0.00 0.00 0.00 72 1028.0
20190919132205 57 38 7.0 10.0 0.00 0.00 0.00 73 1028.0
20190919132046 57 355 8.0 10.0 0.00 0.00 0.00 72 1027.9
20190919131928 57 345 7.0 10.0 0.00 0.00 0.00 74 1027.9
20190919131816 56 337 7.0 11.0 0.00 0.00 0.00 74 1027.9
20190919131658 56 355 7.0 11.0 0.00 0.00 0.00 74 1027.9
20190919131539 56 355 6.0 11.0 0.00 0.00 0.00 74 1027.9
20190919131422 56 342 6.0 11.0 0.00 0.00 0.00 74 1027.9
20190919131306 56 47 7.0 11.0 0.00 0.00 0.00 73 1027.9
20190919131149 56 38 7.0 11.0 0.00 0.00 0.00 73 1027.9
20190919131031 56 50 7.0 11.0 0.00 0.00 0.00 74 1027.9
20190919130914 56 38 6.0 11.0 0.00 0.00 0.00 75 1027.9
20190919130755 56 21 6.0 10.0 0.00 0.00 0.00 75 1027.9
20190919130639 56 342 6.0 10.0 0.00 0.00 0.00 76 1027.9
20190919130517 55 346 7.0 10.0 0.00 0.00 0.00 75 1027.9
20190919130402 55 5 7.0 10.0 0.00 0.00 0.00 74 1027.9
20190919130246 55 343 6.0 10.0 0.00 0.00 0.00 74 1027.9
20190919130137 55 26 5.0 11.0 0.00 0.00 0.00 75 1027.9
20190919125934 55 360 5.0 11.0 0.00 0.00 0.00 76 1027.9
20190919125815 55 5 5.0 11.0 0.00 0.00 0.00 75 1027.9
20190919125659 55 18 6.0 11.0 0.00 0.00 0.00 76 1027.9
20190919125548 55 47 6.0 11.0 0.00 0.00 0.00 75 1027.9
20190919125431 55 15 6.0 11.0 0.00 0.00 0.00 75 1028.0
20190919125316 55 18 6.0 11.0 0.00 0.00 0.00 76 1028.0
20190919125159 55 19 5.0 9.0 0.00 0.00 0.00 77 1027.9
20190919125041 54 350 6.0 9.0 0.00 0.00 0.00 76 1028.0
20190919124923 54 351 5.0 9.0 0.00 0.00 0.00 78 1028.0
20190919124805 54 9 4.0 9.0 0.00 0.00 0.00 78 1027.9
20190919124645 54 355 4.0 9.0 0.00 0.00 0.00 78 1027.9
20190919124532 54 13 5.0 9.0 0.00 0.00 0.00 78 1028.0
20190919124415 54 11 5.0 9.0 0.00 0.00 0.00 78 1028.0
20190919124301 54 9 5.0 8.0 0.00 0.00 0.00 78 1027.9
20190919124144 53 5 5.0 8.0 0.00 0.00 0.00 78 1027.9
20190919124024 53 24 5.0 9.0 0.00 0.00 0.00 78 1027.9
20190919123908 53 355 5.0 9.0 0.00 0.00 0.00 79 1027.8
20190919123749 53 355 5.0 9.0 0.00 0.00 0.00 79 1027.8
20190919123633 53 355 4.0 9.0 0.00 0.00 0.00 79 1027.8
20190919123512 53 19 5.0 9.0 0.00 0.00 0.00 79 1027.7
20190919123355 53 5 6.0 9.0 0.00 0.00 0.00 79 1027.8
20190919123237 53 345 5.0 9.0 0.00 0.00 0.00 79 1027.7
20190919123119 52 5 5.0 9.0 0.00 0.00 0.00 80 1027.8
20190919122958 52 12 6.0 9.0 0.00 0.00 0.00 79 1027.7
20190919122845 52 360 5.0 8.0 0.00 0.00 0.00 80 1027.7
20190919122706 52 5 5.0 8.0 0.00 0.00 0.00 80 1027.7
20190919122548 52 5 5.0 8.0 0.00 0.00 0.00 80 1027.7
20190919122429 52 5 4.0 9.0 0.00 0.00 0.00 80 1027.7
20190919122311 52 5 5.0 9.0 0.00 0.00 0.00 80 1027.7
20190919122153 51 342 6.0 9.0 0.00 0.00 0.00 81 1027.7
20190919122038 51 5 5.0 9.0 0.00 0.00 0.00 81 1027.6
20190919121921 51 332 6.0 9.0 0.00 0.00 0.00 81 1027.6
20190919121808 51 355 6.0 9.0 0.00 0.00 0.00 81 1027.6
20190919121650 51 360 6.0 9.0 0.00 0.00 0.00 81 1027.6
20190919121531 51 5 6.0 9.0 0.00 0.00 0.00 81 1027.6
20190919121412 51 344 5.0 9.0 0.00 0.00 0.00 81 1027.5
20190919121258 51 5 6.0 9.0 0.00 0.00 0.00 81 1027.6
20190919121147 51 5 6.0 9.0 0.00 0.00 0.00 81 1027.5
20190919121026 51 344 7.0 9.0 0.00 0.00 0.00 81 1027.5
20190919120911 51 344 7.0 9.0 0.00 0.00 0.00 81 1027.5
20190919120752 50 355 6.0 9.0 0.00 0.00 0.00 81 1027.5
20190919120635 50 348 6.0 9.0 0.00 0.00 0.00 81 1027.5
20190919120513 50 350 7.0 9.0 0.00 0.00 0.00 81 1027.5
20190919120354 50 347 6.0 9.0 0.00 0.00 0.00 81 1027.5
20190919120240 50 350 6.0 9.0 0.00 0.00 0.00 82 1027.5
20190919120127 50 11 6.0 9.0 0.00 0.00 0.00 82 1027.6
20190919115930 50 355 5.0 8.0 0.00 0.00 0.00 82 1027.5
20190919115813 50 348 4.0 8.0 0.00 0.00 0.00 82 1027.5
20190919115656 50 355 4.0 8.0 0.00 0.00 0.00 83 1027.5
20190919115543 50 342 5.0 8.0 0.00 0.00 0.00 83 1027.4
20190919115427 50 349 5.0 8.0 0.00 0.00 0.00 83 1027.4
20190919115310 50 355 5.0 8.0 0.00 0.00 0.00 82 1027.4
20190919115152 50 5 6.0 8.0 0.00 0.00 0.00 83 1027.4
20190919115029 49 5 6.0 8.0 0.00 0.00 0.00 82 1027.4
20190919114917 49 349 6.0 8.0 0.00 0.00 0.00 82 1027.4
20190919114758 49 355 6.0 8.0 0.00 0.00 0.00 83 1027.3
20190919114640 49 347 5.0 8.0 0.00 0.00 0.00 83 1027.3
20190919114519 49 5 5.0 7.0 0.00 0.00 0.00 83 1027.3
20190919114406 49 350 5.0 7.0 0.00 0.00 0.00 84 1027.3
20190919114248 49 348 4.0 7.0 0.00 0.00 0.00 84 1027.4
20190919114132 49 5 4.0 7.0 0.00 0.00 0.00 84 1027.3
20190919114011 49 348 4.0 6.0 0.00 0.00 0.00 85 1027.4
20190919113857 49 360 4.0 7.0 0.00 0.00 0.00 85 1027.3
20190919113740 48 344 4.0 7.0 0.00 0.00 0.00 85 1027.3
20190919113623 48 348 5.0 7.0 0.00 0.00 0.00 85 1027.3
20190919113503 48 350 4.0 7.0 0.00 0.00 0.00 85 1027.3
20190919113347 48 355 4.0 7.0 0.00 0.00 0.00 85 1027.2
20190919113230 48 355 5.0 7.0 0.00 0.00 0.00 86 1027.2
20190919113114 48 360 5.0 7.0 0.00 0.00 0.00 86 1027.2
20190919112950 48 11 5.0 7.0 0.00 0.00 0.00 86 1027.2
20190919112835 48 355 5.0 7.0 0.00 0.00 0.00 86 1027.2
20190919112718 48 355 4.0 6.0 0.00 0.00 0.00 86 1027.2
20190919112604 48 355 4.0 6.0 0.00 0.00 0.00 86 1027.2
20190919112442 48 351 4.0 6.0 0.00 0.00 0.00 86 1027.2
20190919112324 48 360 5.0 6.0 0.00 0.00 0.00 86 1027.1
20190919112212 47 355 5.0 6.0 0.00 0.00 0.00 86 1027.1
20190919112052 47 351 4.0 6.0 0.00 0.00 0.00 86 1027.1
20190919111932 47 360 4.0 6.0 0.00 0.00 0.00 86 1027.1
20190919111816 47 355 4.0 7.0 0.00 0.00 0.00 86 1027.1
20190919111659 47 360 4.0 7.0 0.00 0.00 0.00 86 1027.1
20190919111543 47 347 4.0 7.0 0.00 0.00 0.00 86 1027.0
20190919111432 47 347 4.0 7.0 0.00 0.00 0.00 86 1027.1
20190919111314 47 336 4.0 7.0 0.00 0.00 0.00 86 1027.1
20190919111156 47 355 5.0 7.0 0.00 0.00 0.00 86 1027.1
20190919111038 47 355 6.0 7.0 0.00 0.00 0.00 87 1027.0
20190919110923 47 350 5.0 7.0 0.00 0.00 0.00 87 1027.1
20190919110805 47 5 5.0 7.0 0.00 0.00 0.00 87 1027.1
20190919110650 47 9 5.0 7.0 0.00 0.00 0.00 87 1027.0
20190919110535 47 349 5.0 7.0 0.00 0.00 0.00 87 1027.0
20190919110418 47 5 4.0 7.0 0.00 0.00 0.00 87 1027.0
20190919110302 47 355 4.0 7.0 0.00 0.00 0.00 87 1027.0
20190919110150 47 355 4.0 7.0 0.00 0.00 0.00 87 1027.0
20190919105948 47 5 4.0 7.0 0.00 0.00 0.00 87 1027.0
20190919105832 47 348 4.0 7.0 0.00 0.00 0.00 87 1026.9
20190919105713 47 360 5.0 7.0 0.00 0.00 0.00 87 1027.0
20190919105555 47 355 5.0 7.0 0.00 0.00 0.00 87 1027.0
20190919105432 47 355 5.0 7.0 0.00 0.00 0.00 88 1027.0
20190919105315 47 360 5.0 7.0 0.00 0.00 0.00 88 1026.9
20190919105158 47 335 5.0 7.0 0.00 0.00 0.00 88 1026.9
20190919105043 47 347 5.0 7.0 0.00 0.00 0.00 88 1027.0
20190919104931 47 351 4.0 6.0 0.00 0.00 0.00 88 1026.9
20190919104815 47 355 4.0 6.0 0.00 0.00 0.00 88 1026.9
20190919104656 47 334 4.0 6.0 0.00 0.00 0.00 88 1026.9
20190919104544 47 351 4.0 6.0 0.00 0.00 0.00 88 1026.9
20190919104427 47 349 4.0 6.0 0.00 0.00 0.00 88 1026.9
20190919104309 47 344 4.0 6.0 0.00 0.00 0.00 88 1026.9
20190919104150 47 355 5.0 6.0 0.00 0.00 0.00 88 1026.8
20190919104033 47 346 5.0 6.0 0.00 0.00 0.00 88 1026.8
20190919103918 47 347 5.0 6.0 0.00 0.00 0.00 88 1026.8
20190919103803 47 343 4.0 6.0 0.00 0.00 0.00 88 1026.8
20190919103645 47 355 4.0 6.0 0.00 0.00 0.00 88 1026.8
20190919103523 47 337 4.0 6.0 0.00 0.00 0.00 88 1026.8
20190919103409 47 343 4.0 6.0 0.00 0.00 0.00 88 1026.8
20190919103256 47 345 3.0 4.0 0.00 0.00 0.00 88 1026.8
20190919103140 47 345 3.0 4.0 0.00 0.00 0.00 88 1026.8
20190919103021 47 345 3.0 4.0 0.00 0.00 0.00 88 1026.8
20190919102902 47 345 3.0 5.0 0.00 0.00 0.00 88 1026.8
20190919102746 47 345 3.0 5.0 0.00 0.00 0.00 88 1026.8
20190919102629 47 345 3.0 5.0 0.00 0.00 0.00 88 1026.8
20190919102507 47 345 3.0 5.0 0.00 0.00 0.00 88 1026.7
20190919102347 47 345 3.0 7.0 0.00 0.00 0.00 88 1026.7
20190919102232 47 345 3.0 7.0 0.00 0.00 0.00 88 1026.7
20190919102115 47 343 3.0 7.0 0.00 0.00 0.00 88 1026.7
20190919101953 47 342 4.0 7.0 0.00 0.00 0.00 88 1026.7
20190919101836 47 348 3.0 7.0 0.00 0.00 0.00 88 1026.6
20190919101719 47 347 4.0 7.0 0.00 0.00 0.00 88 1026.6
20190919101604 47 348 4.0 6.0 0.00 0.00 0.00 88 1026.6
20190919101444 47 344 4.0 6.0 0.00 0.00 0.00 88 1026.6
20190919101326 47 344 4.0 6.0 0.00 0.00 0.00 88 1026.6
20190919101209 47 344 4.0 6.0 0.00 0.00 0.00 88 1026.6
20190919101054 47 344 4.0 6.0 0.00 0.00 0.00 88 1026.6
20190919100933 47 344 4.0 6.0 0.00 0.00 0.00 88 1026.6
20190919100815 47 342 4.0 6.0 0.00 0.00 0.00 88 1026.6
20190919100700 47 5 4.0 6.0 0.00 0.00 0.00 88 1026.6
20190919100543 47 355 4.0 6.0 0.00 0.00 0.00 88 1026.6
20190919100427 47 343 4.0 6.0 0.00 0.00 0.00 88 1026.6
20190919100311 47 349 4.0 6.0 0.00 0.00 0.00 88 1026.6
20190919100158 47 338 4.0 6.0 0.00 0.00 0.00 88 1026.6
20190919100003 47 342 3.0 6.0 0.00 0.00 0.00 88 1026.6
20190919095848 47 343 4.0 6.0 0.00 0.00 0.00 88 1026.6
20190919095730 47 340 4.0 6.0 0.00 0.00 0.00 88 1026.6
20190919095614 47 348 4.0 6.0 0.00 0.00 0.00 88 1026.5
20190919095449 47 332 4.0 6.0 0.00 0.00 0.00 88 1026.5
20190919095330 47 332 4.0 6.0 0.00 0.00 0.00 88 1026.5
20190919095212 47 343 3.0 5.0 0.00 0.00 0.00 88 1026.5
20190919095100 47 342 3.0 5.0 0.00 0.00 0.00 87 1026.5
20190919094939 48 342 3.0 5.0 0.00 0.00 0.00 87 1026.5
20190919094822 48 342 3.0 5.0 0.00 0.00 0.00 87 1026.5
20190919094705 48 340 3.0 5.0 0.00 0.00 0.00 87 1026.4
20190919094548 48 339 3.0 4.0 0.00 0.00 0.00 87 1026.4
20190919094431 48 340 3.0 5.0 0.00 0.00 0.00 87 1026.5
20190919094317 48 339 3.0 5.0 0.00 0.00 0.00 87 1026.4
20190919094158 48 340 3.0 5.0 0.00 0.00 0.00 86 1026.3
20190919094042 48 340 3.0 5.0 0.00 0.00 0.00 86 1026.3
20190919093926 48 339 3.0 5.0 0.00 0.00 0.00 86 1026.3
20190919093812 48 339 4.0 5.0 0.00 0.00 0.00 86 1026.3
20190919093652 48 339 3.0 5.0 0.00 0.00 0.00 86 1026.2
20190919093536 48 338 3.0 5.0 0.00 0.00 0.00 86 1026.2
20190919093424 48 338 3.0 5.0 0.00 0.00 0.00 86 1026.2
20190919093310 48 334 3.0 5.0 0.00 0.00 0.00 86 1026.2
20190919093153 48 334 3.0 5.0 0.00 0.00 0.00 86 1026.2
20190919093039 49 334 3.0 5.0 0.00 0.00 0.00 86 1026.2
20190919092921 49 330 3.0 5.0 0.00 0.00 0.00 86 1026.2
20190919092806 49 330 4.0 6.0 0.00 0.00 0.00 86 1026.2
20190919092653 49 338 4.0 7.0 0.00 0.00 0.00 86 1026.2
20190919092536 49 341 3.0 7.0 0.00 0.00 0.00 86 1026.2
20190919092424 49 336 3.0 7.0 0.00 0.00 0.00 86 1026.2
20190919092306 49 336 3.0 7.0 0.00 0.00 0.00 86 1026.2
20190919092145 49 344 4.0 7.0 0.00 0.00 0.00 85 1026.2
20190919092022 49 350 4.0 7.0 0.00 0.00 0.00 85 1026.1
20190919091906 49 348 4.0 7.0 0.00 0.00 0.00 85 1026.1
20190919091750 49 348 4.0 6.0 0.00 0.00 0.00 85 1026.1
20190919091634 49 344 3.0 6.0 0.00 0.00 0.00 85 1026.1
20190919091513 49 348 4.0 6.0 0.00 0.00 0.00 85 1026.1
20190919091354 49 355 4.0 7.0 0.00 0.00 0.00 85 1026.2
20190919091240 49 360 4.0 7.0 0.00 0.00 0.00 85 1026.2
20190919091123 49 5 4.0 7.0 0.00 0.00 0.00 85 1026.2
20190919091006 49 9 4.0 7.0 0.00 0.00 0.00 85 1026.2
20190919090848 49 10 4.0 7.0 0.00 0.00 0.00 85 1026.2
20190919090733 49 11 5.0 7.0 0.00 0.00 0.00 85 1026.2
20190919090616 49 355 4.0 7.0 0.00 0.00 0.00 85 1026.2
20190919090455 49 355 4.0 7.0 0.00 0.00 0.00 85 1026.1
20190919090344 49 9 4.0 7.0 0.00 0.00 0.00 85 1026.1
20190919090224 49 9 4.0 7.0 0.00 0.00 0.00 85 1026.1
20190919090112 49 348 4.0 7.0 0.00 0.00 0.00 85 1026.1
20190919085917 49 360 4.0 6.0 0.00 0.00 0.00 85 1026.1
20190919085802 49 360 4.0 6.0 0.00 0.00 0.00 85 1026.1
20190919085645 49 11 3.0 5.0 0.00 0.00 0.00 85 1026.1
20190919085523 49 5 3.0 5.0 0.00 0.00 0.00 85 1026.1
20190919085409 49 9 3.0 6.0 0.00 0.00 0.00 85 1026.1
20190919085250 49 15 3.0 6.0 0.00 0.00 0.00 85 1026.1
20190919085132 49 15 3.0 6.0 0.00 0.00 0.00 85 1026.1
20190919085011 49 22 4.0 6.0 0.00 0.00 0.00 85 1026.1
20190919084852 49 9 4.0 6.0 0.00 0.00 0.00 85 1026.1
20190919084734 49 14 4.0 6.0 0.00 0.00 0.00 85 1026.1
20190919084616 49 12 4.0 6.0 0.00 0.00 0.00 84 1026.1
20190919084453 49 5 3.0 6.0 0.00 0.00 0.00 84 1026.0
20190919084335 50 360 3.0 5.0 0.00 0.00 0.00 84 1026.1
20190919084220 50 360 3.0 5.0 0.00 0.00 0.00 84 1026.0
20190919084103 50 14 3.0 4.0 0.00 0.00 0.00 83 1026.1
20190919083942 50 360 3.0 5.0 0.00 0.00 0.00 83 1026.1
20190919083826 50 360 2.0 5.0 0.00 0.00 0.00 83 1026.1
20190919083714 50 360 2.0 5.0 0.00 0.00 0.00 82 1026.1
20190919083556 50 360 2.0 6.0 0.00 0.00 0.00 82 1026.1
20190919083432 50 360 3.0 6.0 0.00 0.00 0.00 82 1026.2
20190919083315 51 360 3.0 6.0 0.00 0.00 0.00 81 1026.2
20190919083200 51 360 4.0 6.0 0.00 0.00 0.00 81 1026.2
20190919083045 51 351 4.0 6.0 0.00 0.00 0.00 81 1026.2
20190919082926 51 360 4.0 6.0 0.00 0.00 0.00 80 1026.2
20190919082811 51 360 4.0 7.0 0.00 0.00 0.00 80 1026.2
20190919082654 51 11 4.0 7.0 0.00 0.00 0.00 79 1026.2
20190919082535 51 5 4.0 7.0 0.00 0.00 0.00 79 1026.2
20190919082418 51 11 4.0 7.0 0.00 0.00 0.00 79 1026.2
20190919082306 51 12 4.0 7.0 0.00 0.00 0.00 79 1026.2
20190919082146 52 12 4.0 7.0 0.00 0.00 0.00 79 1026.3
20190919082030 52 11 4.0 8.0 0.00 0.00 0.00 78 1026.2
20190919081915 52 37 3.0 8.0 0.00 0.00 0.00 78 1026.3
20190919081757 52 34 4.0 8.0 0.00 0.00 0.00 78 1026.4
20190919081640 52 18 4.0 9.0 0.00 0.00 0.00 78 1026.4
20190919081519 52 360 4.0 10.0 0.00 0.00 0.00 78 1026.4
20190919081402 52 26 5.0 10.0 0.00 0.00 0.00 78 1026.5
20190919081245 52 34 4.0 10.0 0.00 0.00 0.00 79 1026.5
20190919081126 52 14 4.0 10.0 0.00 0.00 0.00 78 1026.4
20190919081004 52 30 5.0 10.0 0.00 0.00 0.00 79 1026.4
20190919080845 52 22 6.0 10.0 0.00 0.00 0.00 79 1026.4
20190919080728 52 36 5.0 10.0 0.00 0.00 0.00 80 1026.4
20190919080610 52 43 6.0 9.0 0.00 0.00 0.00 80 1026.4
20190919080446 52 51 5.0 9.0 0.00 0.00 0.00 80 1026.3
20190919080335 52 15 5.0 9.0 0.00 0.00 0.00 81 1026.3
20190919080222 52 52 6.0 9.0 0.00 0.00 0.00 81 1026.2
20190919080022 52 17 5.0 9.0 0.00 0.00 0.00 82 1026.2
20190919075908 52 40 6.0 9.0 0.00 0.00 0.00 82 1026.2
20190919075756 52 46 5.0 8.0 0.00 0.00 0.00 82 1026.2
20190919075639 52 44 4.0 8.0 0.00 0.00 0.00 82 1026.2
20190919075515 52 28 3.0 8.0 0.00 0.00 0.00 82 1026.2
20190919075359 52 42 3.0 8.0 0.00 0.00 0.00 82 1026.2
20190919075243 52 24 4.0 9.0 0.00 0.00 0.00 82 1026.2
20190919075126 52 28 5.0 9.0 0.00 0.00 0.00 82 1026.2
20190919075003 52 36 4.0 9.0 0.00 0.00 0.00 82 1026.2
20190919074844 52 58 4.0 9.0 0.00 0.00 0.00 83 1026.2
20190919074733 52 31 4.0 9.0 0.00 0.00 0.00 83 1026.2
20190919074616 52 47 4.0 9.0 0.00 0.00 0.00 83 1026.3
20190919074454 52 9 4.0 9.0 0.00 0.00 0.00 83 1026.3
20190919074338 51 66 4.0 9.0 0.00 0.00 0.00 83 1026.3
20190919074223 51 57 4.0 8.0 0.00 0.00 0.00 84 1026.3
20190919074106 51 77 2.0 8.0 0.00 0.00 0.00 83 1026.2
20190919073946 51 55 3.0 8.0 0.00 0.00 0.00 83 1026.2
20190919073830 51 55 3.0 8.0 0.00 0.00 0.00 84 1026.2
20190919073714 51 42 3.0 8.0 0.00 0.00 0.00 84 1026.2
20190919073557 51 41 4.0 8.0 0.00 0.00 0.00 84 1026.2
20190919073436 51 27 4.0 7.0 0.00 0.00 0.00 84 1026.2
20190919073318 51 80 3.0 7.0 0.00 0.00 0.00 84 1026.2
20190919073202 51 57 3.0 7.0 0.00 0.00 0.00 85 1026.2
20190919073048 51 26 4.0 6.0 0.00 0.00 0.00 85 1026.1
20190919072929 51 45 3.0 6.0 0.00 0.00 0.00 85 1026.1
20190919072812 51 27 3.0 6.0 0.00 0.00 0.00 86 1026.1
20190919072656 50 39 3.0 6.0 0.00 0.00 0.00 86 1026.1
20190919072539 50 35 3.0 6.0 0.00 0.00 0.00 86 1026.0
20190919072422 50 35 3.0 6.0 0.00 0.00 0.00 86 1026.0
20190919072306 50 36 4.0 6.0 0.00 0.00 0.00 87 1026.0
20190919072149 50 32 3.0 5.0 0.00 0.00 0.00 87 1026.0
20190919072032 50 24 3.0 4.0 0.00 0.00 0.00 88 1026.0
20190919071913 50 23 3.0 4.0 0.00 0.00 0.00 88 1026.0
20190919071759 50 29 3.0 4.0 0.00 0.00 0.00 88 1026.0
20190919071642 50 32 3.0 4.0 0.00 0.00 0.00 88 1026.0
20190919071519 50 31 2.0 4.0 0.00 0.00 0.00 88 1026.0
20190919071407 49 31 3.0 4.0 0.00 0.00 0.00 89 1026.0
20190919071253 49 31 2.0 4.0 0.00 0.00 0.00 89 1026.0
20190919071135 49 31 3.0 4.0 0.00 0.00 0.00 89 1026.0
20190919071012 49 31 2.0 4.0 0.00 0.00 0.00 89 1026.0
20190919070853 49 12 2.0 4.0 0.00 0.00 0.00 90 1025.9
20190919070736 49 12 1.0 5.0 0.00 0.00 0.00 90 1026.0
20190919070621 49 12 2.0 5.0 0.00 0.00 0.00 90 1026.0
20190919070500 49 12 2.0 5.0 0.00 0.00 0.00 90 1026.0
20190919070340 49 12 2.0 5.0 0.00 0.00 0.00 90 1026.0
20190919070225 49 11 2.0 5.0 0.00 0.00 0.00 90 1026.0
20190919070110 49 5 2.0 5.0 0.00 0.00 0.00 90 1026.0
20190919065915 49 5 3.0 5.0 0.00 0.00 0.00 90 1025.9
20190919065803 49 5 3.0 5.0 0.00 0.00 0.00 90 1025.9
20190919065647 49 5 3.0 5.0 0.00 0.00 0.00 90 1026.0
20190919065524 49 5 3.0 5.0 0.00 0.00 0.00 90 1026.0
20190919065406 49 360 3.0 5.0 0.00 0.00 0.00 90 1025.9
20190919065252 49 360 3.0 4.0 0.00 0.00 0.00 90 1025.9
20190919065134 49 5 3.0 4.0 0.00 0.00 0.00 89 1025.9
20190919065011 49 5 2.0 3.0 0.00 0.00 0.00 89 1025.9
20190919064855 49 5 2.0 3.0 0.00 0.00 0.00 89 1025.8
20190919064739 49 5 2.0 3.0 0.00 0.00 0.00 89 1025.8
20190919064621 49 5 2.0 3.0 0.00 0.00 0.00 89 1025.8
20190919064459 49 5 2.0 3.0 0.00 0.00 0.00 89 1025.8
20190919064340 49 5 2.0 4.0 0.00 0.00 0.00 89 1025.7
20190919064223 49 5 2.0 4.0 0.00 0.00 0.00 89 1025.7
20190919064112 49 5 2.0 4.0 0.00 0.00 0.00 88 1025.7
20190919063952 49 5 2.0 4.0 0.00 0.00 0.00 88 1025.7
20190919063835 49 5 2.0 4.0 0.00 0.00 0.00 88 1025.6
20190919063719 50 5 2.0 4.0 0.00 0.00 0.00 88 1025.6
20190919063602 50 5 3.0 4.0 0.00 0.00 0.00 88 1025.6
20190919063443 50 5 3.0 4.0 0.00 0.00 0.00 88 1025.6
20190919063326 50 5 3.0 4.0 0.00 0.00 0.00 88 1025.6
20190919063211 50 9 3.0 3.0 0.00 0.00 0.00 88 1025.7
20190919063054 50 9 3.0 3.0 0.00 0.00 0.00 88 1025.7
20190919062931 50 9 3.0 3.0 0.00 0.00 0.00 88 1025.6
20190919062813 50 10 2.0 3.0 0.00 0.00 0.00 88 1025.6
20190919062655 50 10 2.0 3.0 0.00 0.00 0.00 88 1025.6
20190919062537 50 10 1.0 3.0 0.00 0.00 0.00 88 1025.7
20190919062427 50 10 1.0 3.0 0.00 0.00 0.00 87 1025.8
20190919062312 50 10 1.0 4.0 0.00 0.00 0.00 87 1025.8
20190919062153 50 10 1.0 4.0 0.00 0.00 0.00 87 1025.8
20190919062037 50 10 2.0 4.0 0.00 0.00 0.00 87 1025.8
20190919061920 50 10 2.0 4.0 0.00 0.00 0.00 87 1025.7
20190919061806 50 10 2.0 4.0 0.00 0.00 0.00 87 1025.7
20190919061645 50 10 2.0 4.0 0.00 0.00 0.00 87 1025.7
20190919061522 50 10 2.0 4.0 0.00 0.00 0.00 87 1025.7
20190919061406 50 10 2.0 4.0 0.00 0.00 0.00 87 1025.7
20190919061250 51 9 2.0 4.0 0.00 0.00 0.00 87 1025.7
20190919061135 51 10 2.0 4.0 0.00 0.00 0.00 87 1025.7
20190919061014 51 10 2.0 4.0 0.00 0.00 0.00 87 1025.7
20190919060857 51 10 2.0 4.0 0.00 0.00 0.00 87 1025.7
20190919060745 51 10 2.0 4.0 0.00 0.00 0.00 87 1025.7
20190919060629 51 11 3.0 4.0 0.00 0.00 0.00 87 1025.7
20190919060507 51 10 2.0 4.0 0.00 0.00 0.00 87 1025.7
20190919060350 51 10 2.0 4.0 0.00 0.00 0.00 87 1025.7
20190919060234 51 10 2.0 4.0 0.00 0.00 0.00 87 1025.8
20190919060122 51 10 2.0 4.0 0.00 0.00 0.00 87 1025.8
20190919055926 51 10 2.0 4.0 0.00 0.00 0.00 87 1026.0
20190919055808 51 10 2.0 4.0 0.00 0.00 0.00 87 1026.0
20190919055650 51 9 2.0 4.0 0.00 0.00 0.00 87 1026.0
20190919055532 51 17 2.0 4.0 0.00 0.00 0.00 87 1026.0
20190919055414 51 17 3.0 4.0 0.00 0.00 0.00 87 1026.0
20190919055256 51 17 3.0 4.0 0.00 0.00 0.00 87 1025.9
20190919055143 51 20 2.0 4.0 0.00 0.00 0.00 87 1026.0
20190919055022 51 21 2.0 4.0 0.00 0.00 0.00 87 1025.9
20190919054905 51 21 3.0 4.0 0.00 0.00 0.00 87 1026.0
20190919054748 51 21 3.0 4.0 0.00 0.00 0.00 87 1026.0
20190919054634 51 21 3.0 4.0 0.00 0.00 0.00 87 1026.0
20190919054512 51 23 2.0 4.0 0.00 0.00 0.00 87 1026.0
20190919054354 51 24 2.0 4.0 0.00 0.00 0.00 87 1026.0
20190919054235 51 24 3.0 4.0 0.00 0.00 0.00 87 1026.0
20190919054118 51 24 3.0 4.0 0.00 0.00 0.00 88 1026.0
20190919053955 51 34 2.0 4.0 0.00 0.00 0.00 88 1026.0
20190919053839 51 33 2.0 4.0 0.00 0.00 0.00 88 1026.0
20190919053722 51 34 2.0 4.0 0.00 0.00 0.00 88 1026.1
20190919053604 51 34 2.0 4.0 0.00 0.00 0.00 88 1026.1
20190919053444 52 34 2.0 4.0 0.00 0.00 0.00 88 1026.1
20190919053327 52 34 2.0 4.0 0.00 0.00 0.00 88 1026.1
20190919053211 52 29 2.0 5.0 0.00 0.00 0.00 88 1026.1
20190919053054 52 29 2.0 5.0 0.00 0.00 0.00 88 1026.0
20190919052930 52 29 2.0 5.0 0.00 0.00 0.00 88 1026.0
20190919052812 52 29 2.0 5.0 0.00 0.00 0.00 88 1026.0
20190919052653 52 29 2.0 5.0 0.00 0.00 0.00 88 1026.0
20190919052539 52 29 2.0 5.0 0.00 0.00 0.00 88 1026.0
20190919052422 52 36 2.0 5.0 0.00 0.00 0.00 88 1025.9
20190919052302 52 30 2.0 4.0 0.00 0.00 0.00 88 1026.0
20190919052146 52 30 2.0 4.0 0.00 0.00 0.00 88 1025.9
20190919052025 51 31 2.0 4.0 0.00 0.00 0.00 89 1025.9
20190919051909 51 31 2.0 4.0 0.00 0.00 0.00 89 1025.9
20190919051757 51 13 2.0 4.0 0.00 0.00 0.00 89 1025.9
20190919051642 51 12 2.0 4.0 0.00 0.00 0.00 89 1025.9
20190919051517 51 12 2.0 4.0 0.00 0.00 0.00 89 1025.9
20190919051357 51 12 2.0 4.0 0.00 0.00 0.00 89 1025.9
20190919051244 51 12 2.0 4.0 0.00 0.00 0.00 88 1026.0
20190919051126 52 12 1.0 4.0 0.00 0.00 0.00 88 1026.0
20190919051008 52 12 1.0 4.0 0.00 0.00 0.00 89 1026.0
20190919050852 52 12 2.0 4.0 0.00 0.00 0.00 89 1026.0
20190919050735 52 12 3.0 4.0 0.00 0.00 0.00 89 1025.9
20190919050619 52 5 2.0 4.0 0.00 0.00 0.00 88 1026.0
20190919050456 52 5 2.0 5.0 0.00 0.00 0.00 88 1026.0
20190919050339 52 360 1.0 5.0 0.00 0.00 0.00 88 1026.0
20190919050223 52 360 2.0 5.0 0.00 0.00 0.00 88 1026.0
20190919050116 52 360 2.0 5.0 0.00 0.00 0.00 88 1026.0
20190919045923 52 360 3.0 5.0 0.00 0.00 0.00 88 1026.0
20190919045806 52 355 3.0 5.0 0.00 0.00 0.00 88 1026.0
20190919045651 52 355 3.0 5.0 0.00 0.00 0.00 88 1026.0
20190919045538 52 355 2.0 4.0 0.00 0.00 0.00 88 1026.0
20190919045421 52 355 2.0 4.0 0.00 0.00 0.00 88 1026.1
20190919045304 52 355 2.0 4.0 0.00 0.00 0.00 87 1026.1
20190919045149 52 355 2.0 4.0 0.00 0.00 0.00 87 1026.1
20190919045033 52 355 2.0 4.0 0.00 0.00 0.00 87 1026.1
20190919044919 52 355 3.0 4.0 0.00 0.00 0.00 87 1026.1
20190919044802 52 355 3.0 4.0 0.00 0.00 0.00 87 1026.1
20190919044646 52 15 3.0 3.0 0.00 0.00 0.00 87 1025.9
20190919044534 52 16 2.0 3.0 0.00 0.00 0.00 87 1026.0
20190919044417 52 16 2.0 3.0 0.00 0.00 0.00 87 1025.9
20190919044259 52 16 2.0 3.0 0.00 0.00 0.00 86 1025.9
20190919044143 52 16 1.0 3.0 0.00 0.00 0.00 86 1025.9
20190919044023 53 16 1.0 4.0 0.00 0.00 0.00 86 1025.9
20190919043907 53 16 1.0 4.0 0.00 0.00 0.00 86 1025.9
20190919043754 53 16 1.0 4.0 0.00 0.00 0.00 86 1025.9
20190919043638 53 16 2.0 4.0 0.00 0.00 0.00 86 1025.9
20190919043518 53 16 2.0 4.0 0.00 0.00 0.00 86 1025.9
20190919043402 53 16 2.0 4.0 0.00 0.00 0.00 86 1025.9
20190919043247 53 17 2.0 4.0 0.00 0.00 0.00 86 1025.9
20190919043130 53 22 2.0 5.0 0.00 0.00 0.00 87 1025.9
20190919043006 53 24 3.0 5.0 0.00 0.00 0.00 87 1025.8
20190919042852 53 25 3.0 5.0 0.00 0.00 0.00 87 1025.8
20190919042735 53 26 2.0 5.0 0.00 0.00 0.00 87 1025.8
20190919042622 53 26 2.0 5.0 0.00 0.00 0.00 87 1025.8
20190919042504 53 26 3.0 5.0 0.00 0.00 0.00 87 1025.8
20190919042346 52 26 3.0 5.0 0.00 0.00 0.00 88 1025.8
20190919042232 52 22 2.0 5.0 0.00 0.00 0.00 88 1025.8
20190919042115 52 19 2.0 5.0 0.00 0.00 0.00 88 1025.8
20190919041952 52 21 3.0 5.0 0.00 0.00 0.00 89 1025.8
20190919041837 52 16 3.0 5.0 0.00 0.00 0.00 89 1025.9
20190919041720 52 16 3.0 5.0 0.00 0.00 0.00 89 1025.9
20190919041606 52 19 3.0 5.0 0.00 0.00 0.00 89 1025.8
20190919041446 52 28 3.0 4.0 0.00 0.00 0.00 89 1025.8
20190919041329 52 30 2.0 4.0 0.00 0.00 0.00 89 1025.8
20190919041217 52 22 2.0 3.0 0.00 0.00 0.00 89 1025.9
20190919041103 52 22 2.0 3.0 0.00 0.00 0.00 89 1025.9
20190919040942 52 20 2.0 3.0 0.00 0.00 0.00 89 1025.9
20190919040828 52 20 2.0 3.0 0.00 0.00 0.00 89 1025.9
20190919040709 52 20 2.0 3.0 0.00 0.00 0.00 89 1025.9
20190919040554 52 30 2.0 3.0 0.00 0.00 0.00 89 1025.9
20190919040434 52 30 1.0 3.0 0.00 0.00 0.00 89 1025.9
20190919040316 52 30 1.0 3.0 0.00 0.00 0.00 89 1025.9
20190919040203 52 30 1.0 3.0 0.00 0.00 0.00 89 1026.0
20190919035954 52 30 1.0 3.0 0.00 0.00 0.00 89 1026.0
20190919035837 52 30 1.0 3.0 0.00 0.00 0.00 89 1026.0
20190919035721 52 30 2.0 3.0 0.00 0.00 0.00 89 1026.0
20190919035612 52 30 1.0 3.0 0.00 0.00 0.00 89 1026.0
20190919035450 52 30 2.0 3.0 0.00 0.00 0.00 89 1026.0
20190919035336 52 30 2.0 4.0 0.00 0.00 0.00 89 1026.0
20190919035218 52 30 1.0 4.0 0.00 0.00 0.00 89 1026.0
20190919035103 52 30 1.0 4.0 0.00 0.00 0.00 89 1026.0
20190919034942 52 30 2.0 4.0 0.00 0.00 0.00 89 1026.0
20190919034828 52 30 3.0 4.0 0.00 0.00 0.00 89 1026.0
20190919034714 52 30 3.0 4.0 0.00 0.00 0.00 89 1026.0
20190919034558 52 30 3.0 4.0 0.00 0.00 0.00 89 1026.0
20190919034437 52 33 2.0 3.0 0.00 0.00 0.00 89 1026.0
20190919034321 52 33 2.0 3.0 0.00 0.00 0.00 89 1026.0
20190919034207 52 33 2.0 3.0 0.00 0.00 0.00 88 1026.0
20190919034050 52 59 2.0 3.0 0.00 0.00 0.00 88 1025.8
20190919033931 52 61 2.0 3.0 0.00 0.00 0.00 88 1025.9
20190919033813 52 65 2.0 3.0 0.00 0.00 0.00 88 1025.9
20190919033656 52 65 2.0 3.0 0.00 0.00 0.00 88 1025.9
20190919033539 52 65 1.0 2.0 0.00 0.00 0.00 88 1026.0
20190919033422 52 65 0.0 2.0 0.00 0.00 0.00 87 1026.0
20190919033305 52 65 0.0 2.0 0.00 0.00 0.00 87 1026.0
20190919033150 53 65 1.0 2.0 0.00 0.00 0.00 87 1026.0
20190919033036 53 65 1.0 2.0 0.00 0.00 0.00 87 1026.0
20190919032917 53 65 2.0 2.0 0.00 0.00 0.00 87 1026.0
20190919032757 53 65 1.0 2.0 0.00 0.00 0.00 87 1026.0
20190919032639 53 65 0.0 3.0 0.00 0.00 0.00 87 1026.0
20190919032516 53 65 0.0 3.0 0.00 0.00 0.00 87 1025.9
20190919032359 53 65 0.0 3.0 0.00 0.00 0.00 86 1026.0
20190919032248 53 65 0.0 3.0 0.00 0.00 0.00 86 1026.0
20190919032134 53 65 1.0 3.0 0.00 0.00 0.00 86 1025.9
20190919032009 53 65 2.0 3.0 0.00 0.00 0.00 86 1025.9
20190919031853 53 65 2.0 3.0 0.00 0.00 0.00 86 1025.9
20190919031738 53 65 2.0 2.0 0.00 0.00 0.00 86 1025.9
20190919031624 53 65 1.0 2.0 0.00 0.00 0.00 85 1025.9
20190919031504 54 65 1.0 3.0 0.00 0.00 0.00 85 1025.9
20190919031348 54 65 2.0 3.0 0.00 0.00 0.00 85 1025.9
20190919031233 54 65 2.0 3.0 0.00 0.00 0.00 85 1025.9
20190919031117 54 65 2.0 3.0 0.00 0.00 0.00 85 1025.8
20190919030953 54 65 2.0 3.0 0.00 0.00 0.00 85 1025.8
20190919030840 54 65 2.0 3.0 0.00 0.00 0.00 85 1025.8
20190919030722 54 65 2.0 3.0 0.00 0.00 0.00 85 1025.8
20190919030610 54 65 1.0 2.0 0.00 0.00 0.00 85 1025.8
20190919030451 54 65 1.0 2.0 0.00 0.00 0.00 85 1025.8
20190919030334 54 65 1.0 2.0 0.00 0.00 0.00 85 1025.8
20190919030218 54 65 1.0 2.0 0.00 0.00 0.00 85 1025.8
20190919030105 54 65 1.0 2.0 0.00 0.00 0.00 85 1025.8
20190919025909 54 65 1.0 2.0 0.00 0.00 0.00 85 1025.8
20190919025752 54 65 1.0 2.0 0.00 0.00 0.00 85 1025.8
20190919025635 54 65 0.0 2.0 0.00 0.00 0.00 85 1025.8
20190919025516 54 65 0.0 2.0 0.00 0.00 0.00 85 1025.8
20190919025400 54 65 1.0 2.0 0.00 0.00 0.00 84 1025.8
20190919025244 54 65 1.0 2.0 0.00 0.00 0.00 84 1025.8
20190919025127 54 65 0.0 2.0 0.00 0.00 0.00 84 1025.7
20190919025011 54 65 0.0 2.0 0.00 0.00 0.00 84 1025.8
20190919024855 54 65 0.0 3.0 0.00 0.00 0.00 84 1025.7
20190919024739 54 65 0.0 3.0 0.00 0.00 0.00 84 1025.7
20190919024624 54 65 1.0 3.0 0.00 0.00 0.00 84 1025.7
20190919024502 54 65 0.0 3.0 0.00 0.00 0.00 84 1025.7
20190919024347 54 65 0.0 3.0 0.00 0.00 0.00 84 1025.7
20190919024231 54 65 1.0 3.0 0.00 0.00 0.00 84 1025.7
20190919024114 55 65 1.0 4.0 0.00 0.00 0.00 84 1025.7
20190919023949 55 65 1.0 4.0 0.00 0.00 0.00 84 1025.7
20190919023831 55 65 1.0 4.0 0.00 0.00 0.00 84 1025.7
20190919023715 55 65 1.0 4.0 0.00 0.00 0.00 84 1025.7
20190919023559 55 65 1.0 4.0 0.00 0.00 0.00 84 1025.7
20190919023432 55 65 1.0 4.0 0.00 0.00 0.00 84 1025.7
20190919023317 55 65 1.0 4.0 0.00 0.00 0.00 84 1025.7
20190919023202 55 68 1.0 4.0 0.00 0.00 0.00 84 1025.7
20190919023045 55 68 2.0 4.0 0.00 0.00 0.00 84 1025.8
20190919022928 55 68 2.0 3.0 0.00 0.00 0.00 84 1025.8
20190919022812 55 68 1.0 3.0 0.00 0.00 0.00 84 1025.8
20190919022655 55 67 1.0 2.0 0.00 0.00 0.00 84 1025.7
20190919022535 55 67 1.0 2.0 0.00 0.00 0.00 84 1025.8
20190919022417 55 67 0.0 2.0 0.00 0.00 0.00 84 1025.8
20190919022302 55 67 1.0 2.0 0.00 0.00 0.00 83 1025.8
20190919022145 55 67 1.0 2.0 0.00 0.00 0.00 83 1025.8
20190919022024 55 67 1.0 3.0 0.00 0.00 0.00 83 1025.7
20190919021907 55 67 1.0 4.0 0.00 0.00 0.00 83 1025.7
20190919021752 55 67 1.0 4.0 0.00 0.00 0.00 83 1025.7
20190919021639 55 67 0.0 5.0 0.00 0.00 0.00 83 1025.7
20190919021515 56 67 1.0 5.0 0.00 0.00 0.00 83 1025.7
20190919021357 56 67 1.0 5.0 0.00 0.00 0.00 82 1025.7
20190919021240 56 68 1.0 5.0 0.00 0.00 0.00 82 1025.6
20190919021122 56 68 2.0 5.0 0.00 0.00 0.00 82 1025.6
20190919020958 56 76 2.0 5.0 0.00 0.00 0.00 82 1025.7
20190919020843 56 74 2.0 6.0 0.00 0.00 0.00 82 1025.6
20190919020725 56 81 1.0 4.0 0.00 0.00 0.00 82 1025.6
20190919020610 56 81 2.0 4.0 0.00 0.00 0.00 82 1025.6
20190919020450 56 81 2.0 4.0 0.00 0.00 0.00 82 1025.7
20190919020332 56 81 2.0 3.0 0.00 0.00 0.00 82 1025.6
20190919020220 56 81 1.0 5.0 0.00 0.00 0.00 82 1025.6
20190919020023 56 81 2.0 5.0 0.00 0.00 0.00 82 1025.6
20190919015905 56 81 2.0 5.0 0.00 0.00 0.00 82 1025.5
20190919015751 56 82 1.0 5.0 0.00 0.00 0.00 82 1025.5
20190919015636 56 82 2.0 5.0 0.00 0.00 0.00 82 1025.6
20190919015516 56 82 2.0 5.0 0.00 0.00 0.00 82 1025.5
20190919015359 56 89 1.0 4.0 0.00 0.00 0.00 83 1025.5
20190919015247 56 73 1.0 4.0 0.00 0.00 0.00 83 1025.4
20190919015130 56 73 1.0 4.0 0.00 0.00 0.00 83 1025.5
20190919015008 56 82 1.0 3.0 0.00 0.00 0.00 82 1025.5
20190919014850 56 82 1.0 3.0 0.00 0.00 0.00 82 1025.5
20190919014735 56 82 1.0 3.0 0.00 0.00 0.00 82 1025.5
20190919014619 56 82 1.0 3.0 0.00 0.00 0.00 82 1025.5
20190919014456 56 82 1.0 3.0 0.00 0.00 0.00 82 1025.5
20190919014342 56 82 1.0 3.0 0.00 0.00 0.00 82 1025.6
20190919014226 56 82 1.0 3.0 0.00 0.00 0.00 83 1025.5
20190919014110 56 82 1.0 3.0 0.00 0.00 0.00 83 1025.5
20190919013952 56 82 1.0 3.0 0.00 0.00 0.00 83 1025.5
20190919013838 56 82 1.0 2.0 0.00 0.00 0.00 83 1025.4
20190919013723 56 82 1.0 2.0 0.00 0.00 0.00 83 1025.5
20190919013608 56 82 0.0 2.0 0.00 0.00 0.00 83 1025.4
20190919013444 56 82 0.0 2.0 0.00 0.00 0.00 83 1025.4
20190919013327 56 82 0.0 2.0 0.00 0.00 0.00 83 1025.4
20190919013211 56 82 0.0 2.0 0.00 0.00 0.00 82 1025.4
20190919013059 56 82 0.0 2.0 0.00 0.00 0.00 82 1025.3
20190919012936 56 82 0.0 2.0 0.00 0.00 0.00 82 1025.3
20190919012823 56 82 0.0 2.0 0.00 0.00 0.00 82 1025.3
20190919012710 56 82 0.0 2.0 0.00 0.00 0.00 82 1025.3
20190919012552 56 82 0.0 2.0 0.00 0.00 0.00 81 1025.3
20190919012431 56 82 0.0 2.0 0.00 0.00 0.00 81 1025.3
20190919012315 57 82 0.0 1.0 0.00 0.00 0.00 81 1025.3
20190919012156 57 82 0.0 1.0 0.00 0.00 0.00 81 1025.3
20190919012040 57 82 0.0 1.0 0.00 0.00 0.00 81 1025.3
20190919011927 57 82 0.0 2.0 0.00 0.00 0.00 81 1025.3
20190919011812 57 82 0.0 2.0 0.00 0.00 0.00 80 1025.2
20190919011655 57 82 0.0 2.0 0.00 0.00 0.00 80 1025.2
20190919011538 57 82 0.0 2.0 0.00 0.00 0.00 80 1025.2
20190919011421 57 82 0.0 2.0 0.00 0.00 0.00 80 1025.2
20190919011307 57 82 0.0 2.0 0.00 0.00 0.00 80 1025.2
20190919011151 57 82 1.0 2.0 0.00 0.00 0.00 79 1025.2
20190919011039 57 82 1.0 2.0 0.00 0.00 0.00 79 1025.2
20190919010923 57 82 0.0 2.0 0.00 0.00 0.00 79 1025.2
20190919010806 57 82 0.0 2.0 0.00 0.00 0.00 79 1025.2
20190919010647 58 82 1.0 2.0 0.00 0.00 0.00 78 1025.2
20190919010527 58 82 1.0 2.0 0.00 0.00 0.00 79 1025.2
20190919010411 58 82 1.0 2.0 0.00 0.00 0.00 78 1025.2
20190919010254 58 82 0.0 2.0 0.00 0.00 0.00 78 1025.2
20190919010140 58 82 0.0 2.0 0.00 0.00 0.00 78 1025.2
20190919005938 58 82 1.0 2.0 0.00 0.00 0.00 77 1025.1
20190919005822 58 82 1.0 2.0 0.00 0.00 0.00 78 1025.0
20190919005707 58 82 0.0 2.0 0.00 0.00 0.00 78 1025.0
20190919005552 58 82 1.0 2.0 0.00 0.00 0.00 77 1025.0
20190919005436 58 82 0.0 2.0 0.00 0.00 0.00 77 1025.0
20190919005322 58 82 0.0 2.0 0.00 0.00 0.00 77 1025.0
20190919005205 58 82 0.0 2.0 0.00 0.00 0.00 77 1025.1
20190919005051 58 82 1.0 2.0 0.00 0.00 0.00 77 1025.0
20190919004929 58 82 0.0 2.0 0.00 0.00 0.00 77 1025.0
20190919004813 58 82 0.0 2.0 0.00 0.00 0.00 77 1025.1
20190919004658 58 82 0.0 2.0 0.00 0.00 0.00 77 1025.1
20190919004542 58 82 0.0 2.0 0.00 0.00 0.00 77 1025.1
20190919004426 58 82 1.0 2.0 0.00 0.00 0.00 76 1025.1
20190919004310 58 82 0.0 4.0 0.00 0.00 0.00 76 1025.1
20190919004155 59 82 0.0 4.0 0.00 0.00 0.00 76 1025.1
20190919004039 59 82 0.0 4.0 0.00 0.00 0.00 76 1025.1
20190919003922 59 82 0.0 4.0 0.00 0.00 0.00 76 1025.1
20190919003811 59 82 0.0 4.0 0.00 0.00 0.00 76 1025.1
20190919003654 59 82 1.0 4.0 0.00 0.00 0.00 76 1025.1
20190919003536 59 82 2.0 4.0 0.00 0.00 0.00 76 1025.1
20190919003422 59 78 2.0 4.0 0.00 0.00 0.00 76 1025.0
20190919003304 59 82 1.0 4.0 0.00 0.00 0.00 75 1025.0
20190919003146 59 82 1.0 4.0 0.00 0.00 0.00 75 1025.0
20190919003030 59 82 1.0 4.0 0.00 0.00 0.00 75 1025.0
20190919002916 59 82 1.0 4.0 0.00 0.00 0.00 75 1025.0
20190919002759 59 82 2.0 4.0 0.00 0.00 0.00 75 1025.0
20190919002644 59 82 2.0 4.0 0.00 0.00 0.00 75 1025.0
20190919002522 59 82 2.0 5.0 0.00 0.00 0.00 75 1025.0
20190919002408 59 78 0.0 2.0 0.00 0.00 0.00 75 1024.9
20190919002249 59 78 0.0 2.0 0.00 0.00 0.00 75 1024.9
20190919002136 59 78 0.0 2.0 0.00 0.00 0.00 75 1024.9
20190919002014 59 78 0.0 2.0 0.00 0.00 0.00 75 1024.9
20190919001858 60 78 0.0 2.0 0.00 0.00 0.00 75 1024.9
20190919001743 60 78 0.0 2.0 0.00 0.00 0.00 74 1024.9
20190919001626 60 78 0.0 2.0 0.00 0.00 0.00 74 1024.8
20190919001504 60 78 1.0 2.0 0.00 0.00 0.00 74 1024.8
20190919001347 60 78 1.0 2.0 0.00 0.00 0.00 74 1024.7
20190919001231 60 78 0.0 2.0 0.00 0.00 0.00 74 1024.6
20190919001115 60 78 0.0 2.0 0.00 0.00 0.00 74 1024.6
20190919000957 60 78 0.0 4.0 0.00 0.00 0.00 74 1024.6
20190919000835 60 78 1.0 4.0 0.00 0.00 0.00 74 1024.5
20190919000717 60 78 1.0 4.0 0.00 0.00 0.00 73 1024.5
20190919000601 60 78 0.0 4.0 0.00 0.00 0.00 73 1024.5
20190919000446 60 78 0.0 4.0 0.00 0.00 0.00 73 1024.4
20190919000332 60 78 0.0 4.0 0.00 0.00 0.00 73 1024.4
20190919000218 60 78 1.0 4.0 0.00 0.00 0.00 73 1024.5
20190919000018 60 86 0.0 4.0 0.00 0.00 0.00 73 1024.4
20190918235902 60 86 0.0 4.0 0.00 0.00 0.00 73 1024.4
20190918235747 60 86 0.0 4.0 0.00 0.00 0.00 73 1024.4
20190918235632 60 86 1.0 4.0 0.00 0.00 0.00 73 1024.5
20190918235512 60 86 2.0 4.0 0.00 0.00 0.00 73 1024.4
20190918235352 60 83 2.0 4.0 0.00 0.00 0.00 73 1024.5
20190918235240 60 92 1.0 5.0 0.00 0.00 0.00 73 1024.5
20190918235123 60 92 1.0 5.0 0.00 0.00 0.00 73 1024.5
20190918235004 60 72 0.0 5.0 0.00 0.00 0.00 73 1024.5
20190918234849 60 72 1.0 5.0 0.00 0.00 0.00 73 1024.4
20190918234734 61 72 1.0 5.0 0.00 0.00 0.00 73 1024.4
20190918234618 61 71 2.0 5.0 0.00 0.00 0.00 72 1024.4
20190918234457 61 69 3.0 5.0 0.00 0.00 0.00 72 1024.4
20190918234342 61 84 1.0 5.0 0.00 0.00 0.00 72 1024.4
20190918234224 61 77 2.0 5.0 0.00 0.00 0.00 72 1024.4
20190918234107 61 87 2.0 5.0 0.00 0.00 0.00 72 1024.3
20190918233944 61 93 2.0 5.0 0.00 0.00 0.00 72 1024.3
20190918233827 61 92 2.0 5.0 0.00 0.00 0.00 72 1024.3
20190918233712 61 96 1.0 5.0 0.00 0.00 0.00 72 1024.2
20190918233559 61 55 2.0 5.0 0.00 0.00 0.00 71 1024.2
20190918233440 61 55 2.0 5.0 0.00 0.00 0.00 71 1024.1
20190918233324 61 70 2.0 4.0 0.00 0.00 0.00 71 1024.1
20190918233210 61 69 2.0 4.0 0.00 0.00 0.00 71 1024.1
20190918233052 61 75 1.0 4.0 0.00 0.00 0.00 71 1024.1
20190918232930 61 75 1.0 4.0 0.00 0.00 0.00 71 1024.1
20190918232816 61 74 2.0 6.0 0.00 0.00 0.00 71 1024.1
20190918232657 61 74 2.0 6.0 0.00 0.00 0.00 71 1024.1
20190918232542 61 67 2.0 6.0 0.00 0.00 0.00 71 1024.0
20190918232426 61 87 1.0 6.0 0.00 0.00 0.00 71 1024.0
20190918232310 62 88 2.0 6.0 0.00 0.00 0.00 71 1024.0
20190918232150 62 83 3.0 6.0 0.00 0.00 0.00 71 1023.9
20190918232025 62 86 2.0 6.0 0.00 0.00 0.00 71 1023.9
20190918231905 62 88 2.0 5.0 0.00 0.00 0.00 71 1023.9
20190918231748 62 71 2.0 5.0 0.00 0.00 0.00 71 1023.8
20190918231632 62 93 3.0 5.0 0.00 0.00 0.00 70 1023.9
20190918231516 62 56 3.0 6.0 0.00 0.00 0.00 70 1023.9
20190918231356 62 82 2.0 6.0 0.00 0.00 0.00 70 1023.8
20190918231239 62 67 2.0 7.0 0.00 0.00 0.00 70 1023.8
20190918231123 62 67 2.0 7.0 0.00 0.00 0.00 70 1023.8
20190918231003 62 107 3.0 7.0 0.00 0.00 0.00 70 1023.8
20190918230848 62 96 2.0 7.0 0.00 0.00 0.00 70 1023.8
20190918230736 62 79 2.0 7.0 0.00 0.00 0.00 70 1023.8
20190918230620 63 79 3.0 7.0 0.00 0.00 0.00 70 1023.8
20190918230456 63 59 3.0 7.0 0.00 0.00 0.00 69 1023.8
20190918230337 63 86 3.0 7.0 0.00 0.00 0.00 69 1023.8
20190918230222 63 86 3.0 7.0 0.00 0.00 0.00 69 1023.8
20190918230106 63 80 4.0 7.0 0.00 0.00 0.00 69 1023.8
20190918225914 63 96 4.0 7.0 0.00 0.00 0.00 69 1023.8
20190918225757 63 94 6.0 8.0 0.00 0.00 0.00 68 1023.8
20190918225638 63 80 5.0 8.0 0.00 0.00 0.00 68 1023.8
20190918225516 63 98 2.0 8.0 0.00 0.00 0.00 68 1023.9
20190918225357 63 76 1.0 6.0 0.00 0.00 0.00 68 1023.9
20190918225243 64 75 1.0 6.0 0.00 0.00 0.00 68 1023.9
20190918225125 64 75 2.0 6.0 0.00 0.00 0.00 68 1023.9
20190918225002 64 74 2.0 7.0 0.00 0.00 0.00 67 1024.0
20190918224847 64 74 2.0 7.0 0.00 0.00 0.00 67 1024.0
20190918224732 64 80 3.0 7.0 0.00 0.00 0.00 67 1024.0
20190918224614 64 89 2.0 9.0 0.00 0.00 0.00 67 1024.0
20190918224452 64 76 2.0 9.0 0.00 0.00 0.00 67 1023.9
20190918224336 64 72 4.0 9.0 0.00 0.00 0.00 66 1024.0
20190918224223 64 64 4.0 9.0 0.00 0.00 0.00 66 1024.0
20190918224108 64 84 4.0 9.0 0.00 0.00 0.00 66 1024.0
20190918223946 64 110 5.0 9.0 0.00 0.00 0.00 66 1023.9
20190918223829 65 86 5.0 9.0 0.00 0.00 0.00 65 1023.9
20190918223714 65 94 3.0 9.0 0.00 0.00 0.00 66 1023.9
20190918223559 65 69 4.0 9.0 0.00 0.00 0.00 65 1023.9
20190918223436 65 71 5.0 9.0 0.00 0.00 0.00 65 1023.8
20190918223318 65 101 4.0 9.0 0.00 0.00 0.00 65 1023.8
20190918223203 65 96 5.0 9.0 0.00 0.00 0.00 65 1023.8
20190918223047 65 86 4.0 9.0 0.00 0.00 0.00 65 1023.8
20190918222929 65 96 3.0 9.0 0.00 0.00 0.00 65 1023.7
20190918222809 65 133 3.0 9.0 0.00 0.00 0.00 64 1023.7
20190918222656 65 81 3.0 9.0 0.00 0.00 0.00 64 1023.7
20190918222543 65 96 4.0 9.0 0.00 0.00 0.00 64 1023.6
20190918222426 65 86 6.0 10.0 0.00 0.00 0.00 64 1023.6
20190918222307 65 73 4.0 10.0 0.00 0.00 0.00 64 1023.6
20190918222149 65 64 3.0 10.0 0.00 0.00 0.00 64 1023.6
20190918222032 66 103 4.0 10.0 0.00 0.00 0.00 63 1023.6
20190918221918 66 55 4.0 10.0 0.00 0.00 0.00 63 1023.6
20190918221804 66 94 5.0 10.0 0.00 0.00 0.00 63 1023.6
20190918221646 66 60 5.0 10.0 0.00 0.00 0.00 62 1023.5
20190918221528 66 69 4.0 11.0 0.00 0.00 0.00 63 1023.5
20190918221411 66 102 5.0 11.0 0.00 0.00 0.00 63 1023.5
20190918221253 66 74 3.0 11.0 0.00 0.00 0.00 63 1023.5
20190918221137 66 119 3.0 11.0 0.00 0.00 0.00 62 1023.5
20190918221016 66 84 6.0 11.0 0.00 0.00 0.00 62 1023.5
20190918220904 66 116 7.0 11.0 0.00 0.00 0.00 62 1023.5
20190918220746 66 108 7.0 11.0 0.00 0.00 0.00 62 1023.5
20190918220628 66 115 5.0 11.0 0.00 0.00 0.00 62 1023.5
20190918220506 66 120 6.0 11.0 0.00 0.00 0.00 61 1023.5
20190918220350 67 99 6.0 11.0 0.00 0.00 0.00 61 1023.5
20190918220235 67 114 6.0 11.0 0.00 0.00 0.00 61 1023.5
20190918220119 67 84 4.0 11.0 0.00 0.00 0.00 60 1023.4
20190918215922 67 88 6.0 11.0 0.00 0.00 0.00 60 1023.5
20190918215807 67 80 7.0 11.0 0.00 0.00 0.00 59 1023.5
20190918215650 67 99 5.0 11.0 0.00 0.00 0.00 59 1023.4
20190918215535 67 66 4.0 11.0 0.00 0.00 0.00 58 1023.4
20190918215424 67 47 4.0 11.0 0.00 0.00 0.00 58 1023.4
20190918215311 67 57 6.0 11.0 0.00 0.00 0.00 57 1023.4
20190918215155 67 86 6.0 11.0 0.00 0.00 0.00 58 1023.4
20190918215039 67 54 5.0 12.0 0.00 0.00 0.00 57 1023.4
20190918214926 67 64 6.0 12.0 0.00 0.00 0.00 57 1023.3
20190918214809 67 88 6.0 11.0 0.00 0.00 0.00 58 1023.4
20190918214651 67 107 4.0 11.0 0.00 0.00 0.00 58 1023.3
20190918214533 67 46 3.0 11.0 0.00 0.00 0.00 59 1023.4
20190918214418 67 101 5.0 14.0 0.00 0.00 0.00 59 1023.3
20190918214304 67 46 5.0 14.0 0.00 0.00 0.00 59 1023.3
20190918214147 67 117 4.0 14.0 0.00 0.00 0.00 60 1023.3
20190918214024 67 71 4.0 14.0 0.00 0.00 0.00 61 1023.3
20190918213907 67 113 4.0 14.0 0.00 0.00 0.00 61 1023.3
20190918213751 67 83 4.0 14.0 0.00 0.00 0.00 61 1023.3
20190918213640 67 58 5.0 14.0 0.00 0.00 0.00 60 1023.2
20190918213517 67 70 8.0 14.0 0.00 0.00 0.00 60 1023.2
20190918213404 67 92 6.0 14.0 0.00 0.00 0.00 61 1023.2
20190918213245 67 124 7.0 14.0 0.00 0.00 0.00 61 1023.2
20190918213130 67 132 8.0 14.0 0.00 0.00 0.00 61 1023.2
20190918213009 67 59 6.0 14.0 0.00 0.00 0.00 61 1023.2
20190918212850 67 92 6.0 11.0 0.00 0.00 0.00 61 1023.2
20190918212734 67 113 5.0 11.0 0.00 0.00 0.00 61 1023.2
20190918212617 67 65 2.0 11.0 0.00 0.00 0.00 62 1023.2
20190918212453 67 94 3.0 11.0 0.00 0.00 0.00 62 1023.2
20190918212336 67 121 6.0 11.0 0.00 0.00 0.00 62 1023.2
20190918212217 67 115 7.0 11.0 0.00 0.00 0.00 62 1023.2
20190918212059 67 122 7.0 11.0 0.00 0.00 0.00 62 1023.2
20190918211941 67 113 5.0 11.0 0.00 0.00 0.00 62 1023.2
20190918211823 67 109 6.0 11.0 0.00 0.00 0.00 61 1023.2
20190918211707 67 83 5.0 11.0 0.00 0.00 0.00 61 1023.2
20190918211552 67 128 2.0 11.0 0.00 0.00 0.00 61 1023.2
20190918211432 67 70 3.0 12.0 0.00 0.00 0.00 60 1023.2
20190918211315 68 69 7.0 12.0 0.00 0.00 0.00 59 1023.2
20190918211159 68 72 9.0 12.0 0.00 0.00 0.00 59 1023.2
20190918211043 68 95 6.0 12.0 0.00 0.00 0.00 59 1023.2
20190918210926 68 94 5.0 12.0 0.00 0.00 0.00 59 1023.2
20190918210808 68 130 6.0 13.0 0.00 0.00 0.00 58 1023.3
20190918210650 68 92 7.0 13.0 0.00 0.00 0.00 58 1023.3
20190918210534 68 54 8.0 13.0 0.00 0.00 0.00 57 1023.2
20190918210419 68 22 9.0 13.0 0.00 0.00 0.00 58 1023.3
20190918210307 68 76 9.0 13.0 0.00 0.00 0.00 57 1023.3
20190918210154 68 38 8.0 13.0 0.00 0.00 0.00 57 1023.3
20190918205950 68 46 8.0 13.0 0.00 0.00 0.00 58 1023.2
20190918205836 68 31 7.0 12.0 0.00 0.00 0.00 59 1023.1
20190918205719 68 102 5.0 10.0 0.00 0.00 0.00 60 1023.2
20190918205603 68 111 5.0 9.0 0.00 0.00 0.00 60 1023.1
20190918205440 68 103 4.0 9.0 0.00 0.00 0.00 60 1023.1
20190918205323 68 57 3.0 9.0 0.00 0.00 0.00 59 1023.2
20190918205206 68 47 3.0 9.0 0.00 0.00 0.00 58 1023.2
20190918205051 68 111 3.0 11.0 0.00 0.00 0.00 58 1023.1
20190918204931 68 72 2.0 11.0 0.00 0.00 0.00 58 1023.1
20190918204816 68 57 2.0 11.0 0.00 0.00 0.00 57 1023.2
20190918204705 68 100 4.0 11.0 0.00 0.00 0.00 58 1023.1
20190918204546 68 55 4.0 12.0 0.00 0.00 0.00 57 1023.1
20190918204431 68 67 4.0 12.0 0.00 0.00 0.00 56 1023.1
20190918204313 69 57 6.0 12.0 0.00 0.00 0.00 56 1023.1
20190918204158 69 89 6.0 12.0 0.00 0.00 0.00 56 1023.1
20190918204042 69 127 6.0 12.0 0.00 0.00 0.00 55 1023.1
20190918203925 69 74 6.0 12.0 0.00 0.00 0.00 56 1023.1
20190918203808 69 73 7.0 12.0 0.00 0.00 0.00 57 1023.2
20190918203650 69 46 7.0 12.0 0.00 0.00 0.00 57 1023.1
20190918203530 69 62 6.0 11.0 0.00 0.00 0.00 58 1023.1
20190918203414 69 56 4.0 11.0 0.00 0.00 0.00 59 1023.1
20190918203259 69 69 3.0 11.0 0.00 0.00 0.00 59 1023.1
20190918203141 69 106 3.0 11.0 0.00 0.00 0.00 59 1023.2
20190918203023 68 92 3.0 10.0 0.00 0.00 0.00 59 1023.2
20190918202907 68 63 4.0 10.0 0.00 0.00 0.00 60 1023.2
20190918202750 68 114 4.0 10.0 0.00 0.00 0.00 60 1023.2
20190918202633 68 39 5.0 10.0 0.00 0.00 0.00 59 1023.3
20190918202512 68 81 5.0 10.0 0.00 0.00 0.00 60 1023.3
20190918202356 68 101 4.0 8.0 0.00 0.00 0.00 59 1023.3
20190918202244 68 91 1.0 8.0 0.00 0.00 0.00 59 1023.4
20190918202127 68 106 1.0 11.0 0.00 0.00 0.00 58 1023.4
20190918202007 68 106 2.0 11.0 0.00 0.00 0.00 58 1023.4
20190918201850 68 85 4.0 12.0 0.00 0.00 0.00 57 1023.4
20190918201734 68 51 5.0 12.0 0.00 0.00 0.00 57 1023.4
20190918201618 68 71 5.0 15.0 0.00 0.00 0.00 56 1023.4
20190918201458 68 37 5.0 15.0 0.00 0.00 0.00 56 1023.4
20190918201345 68 60 6.0 15.0 0.00 0.00 0.00 55 1023.4
20190918201228 69 41 7.0 15.0 0.00 0.00 0.00 55 1023.4
20190918201108 69 41 8.0 15.0 0.00 0.00 0.00 55 1023.4
20190918200948 69 47 8.0 15.0 0.00 0.00 0.00 55 1023.4
20190918200830 69 70 8.0 15.0 0.00 0.00 0.00 55 1023.3
20190918200716 69 56 5.0 10.0 0.00 0.00 0.00 56 1023.3
20190918200557 69 51 6.0 10.0 0.00 0.00 0.00 56 1023.3
20190918200434 69 56 5.0 10.0 0.00 0.00 0.00 56 1023.2
20190918200320 69 15 3.0 10.0 0.00 0.00 0.00 56 1023.2
20190918200205 69 98 4.0 10.0 0.00 0.00 0.00 55 1023.2
20190918200005 69 83 6.0 10.0 0.00 0.00 0.00 57 1023.2
20190918195845 69 90 4.0 9.0 0.00 0.00 0.00 57 1023.1
20190918195733 69 57 3.0 8.0 0.00 0.00 0.00 57 1023.1
20190918195617 69 88 4.0 8.0 0.00 0.00 0.00 57 1023.1
20190918195457 68 65 4.0 8.0 0.00 0.00 0.00 58 1023.1
20190918195341 68 82 4.0 10.0 0.00 0.00 0.00 59 1023.2
20190918195224 68 71 4.0 10.0 0.00 0.00 0.00 60 1023.2
20190918195108 68 72 3.0 10.0 0.00 0.00 0.00 59 1023.1
20190918194947 68 51 3.0 10.0 0.00 0.00 0.00 58 1023.1
20190918194830 68 47 4.0 10.0 0.00 0.00 0.00 59 1023.2
20190918194713 68 25 5.0 10.0 0.00 0.00 0.00 60 1023.2
20190918194554 68 63 5.0 10.0 0.00 0.00 0.00 60 1023.2
20190918194431 68 51 4.0 9.0 0.00 0.00 0.00 61 1023.2
20190918194313 68 59 6.0 9.0 0.00 0.00 0.00 60 1023.3
20190918194158 68 53 5.0 10.0 0.00 0.00 0.00 62 1023.2
20190918194045 68 85 3.0 10.0 0.00 0.00 0.00 62 1023.3
20190918193929 68 21 3.0 12.0 0.00 0.00 0.00 62 1023.2
20190918193814 68 16 3.0 12.0 0.00 0.00 0.00 62 1023.2
20190918193700 68 44 3.0 13.0 0.00 0.00 0.00 62 1023.2
20190918193544 68 64 2.0 14.0 0.00 0.00 0.00 62 1023.2
20190918193426 68 66 5.0 14.0 0.00 0.00 0.00 61 1023.2
20190918193308 68 55 6.0 16.0 0.00 0.00 0.00 60 1023.2
20190918193149 68 109 6.0 16.0 0.00 0.00 0.00 61 1023.1
20190918193031 69 39 8.0 16.0 0.00 0.00 0.00 59 1023.2
20190918192916 69 94 9.0 16.0 0.00 0.00 0.00 58 1023.1
20190918192801 69 106 8.0 16.0 0.00 0.00 0.00 57 1023.1
20190918192646 70 74 7.0 16.0 0.00 0.00 0.00 57 1023.1
20190918192524 70 105 5.0 16.0 0.00 0.00 0.00 57 1023.1
20190918192411 70 27 5.0 9.0 0.00 0.00 0.00 55 1023.1
20190918192254 70 65 4.0 10.0 0.00 0.00 0.00 56 1023.1
20190918192136 70 5 5.0 10.0 0.00 0.00 0.00 56 1023.1
20190918192012 70 56 6.0 10.0 0.00 0.00 0.00 56 1023.1
20190918191854 69 60 5.0 10.0 0.00 0.00 0.00 57 1023.0
20190918191739 69 325 6.0 10.0 0.00 0.00 0.00 58 1023.0
20190918191622 69 336 6.0 10.0 0.00 0.00 0.00 58 1023.1
20190918191459 69 355 6.0 10.0 0.00 0.00 0.00 60 1023.1
20190918191343 69 360 5.0 8.0 0.00 0.00 0.00 58 1023.0
20190918191227 69 15 6.0 11.0 0.00 0.00 0.00 58 1023.1
20190918191112 69 51 6.0 11.0 0.00 0.00 0.00 57 1023.1
20190918190950 69 60 4.0 11.0 0.00 0.00 0.00 57 1023.1
20190918190833 68 5 3.0 13.0 0.00 0.00 0.00 57 1023.1
20190918190724 69 11 5.0 13.0 0.00 0.00 0.00 57 1023.1
20190918190610 69 76 5.0 13.0 0.00 0.00 0.00 57 1023.1
20190918190450 69 42 5.0 13.0 0.00 0.00 0.00 57 1023.1
20190918190333 69 41 5.0 13.0 0.00 0.00 0.00 57 1023.1
20190918190220 69 63 6.0 13.0 0.00 0.00 0.00 56 1023.1
20190918190107 69 51 9.0 13.0 0.00 0.00 0.00 57 1023.1
20190918185908 69 24 4.0 10.0 0.00 0.00 0.00 57 1023.0
20190918185749 69 65 3.0 9.0 0.00 0.00 0.00 58 1023.0
20190918185637 69 26 4.0 9.0 0.00 0.00 0.00 56 1023.0
20190918185516 69 47 4.0 9.0 0.00 0.00 0.00 57 1023.0
20190918185402 69 66 3.0 9.0 0.00 0.00 0.00 56 1023.0
20190918185246 69 339 3.0 9.0 0.00 0.00 0.00 56 1023.0
20190918185134 69 32 3.0 9.0 0.00 0.00 0.00 55 1023.1
20190918185010 69 63 4.0 9.0 0.00 0.00 0.00 56 1023.0
20190918184854 69 47 4.0 9.0 0.00 0.00 0.00 57 1023.0
20190918184740 69 76 5.0 9.0 0.00 0.00 0.00 58 1023.0
20190918184624 68 92 4.0 9.0 0.00 0.00 0.00 60 1023.0
20190918184502 68 18 5.0 9.0 0.00 0.00 0.00 60 1023.0
20190918184345 68 33 4.0 10.0 0.00 0.00 0.00 60 1023.0
20190918184231 68 77 2.0 10.0 0.00 0.00 0.00 61 1023.0
20190918184113 68 18 4.0 10.0 0.00 0.00 0.00 60 1023.0
20190918183951 68 62 5.0 10.0 0.00 0.00 0.00 59 1023.1
20190918183834 68 79 6.0 10.0 0.00 0.00 0.00 59 1023.1
20190918183719 68 74 7.0 9.0 0.00 0.00 0.00 59 1023.1
20190918183602 68 39 5.0 9.0 0.00 0.00 0.00 59 1023.1
20190918183444 68 56 4.0 9.0 0.00 0.00 0.00 58 1023.1
20190918183326 68 84 5.0 9.0 0.00 0.00 0.00 58 1023.1
20190918183207 68 78 5.0 9.0 0.00 0.00 0.00 57 1023.1
20190918183056 68 88 5.0 9.0 0.00 0.00 0.00 57 1023.1
20190918182930 69 74 4.0 9.0 0.00 0.00 0.00 57 1023.1
20190918182812 69 95 5.0 9.0 0.00 0.00 0.00 57 1023.1
20190918182653 69 117 6.0 9.0 0.00 0.00 0.00 59 1023.1
20190918182537 69 46 5.0 9.0 0.00 0.00 0.00 60 1023.0
20190918182421 69 48 3.0 7.0 0.00 0.00 0.00 59 1023.0
20190918182302 68 99 4.0 8.0 0.00 0.00 0.00 60 1023.0
20190918182147 68 65 4.0 8.0 0.00 0.00 0.00 61 1023.0
20190918182025 68 95 3.0 10.0 0.00 0.00 0.00 59 1023.0
20190918181905 68 72 4.0 10.0 0.00 0.00 0.00 59 1023.0
20190918181751 68 55 4.0 10.0 0.00 0.00 0.00 59 1023.0
20190918181634 68 53 5.0 10.0 0.00 0.00 0.00 58 1023.0
20190918181513 68 58 6.0 10.0 0.00 0.00 0.00 57 1023.0
20190918181356 68 33 6.0 10.0 0.00 0.00 0.00 57 1023.0
20190918181240 68 35 5.0 10.0 0.00 0.00 0.00 56 1023.0
20190918181124 68 62 6.0 10.0 0.00 0.00 0.00 56 1023.1
20190918181002 68 62 7.0 11.0 0.00 0.00 0.00 55 1023.1
20190918180846 69 44 7.0 11.0 0.00 0.00 0.00 55 1023.0
20190918180731 69 28 6.0 10.0 0.00 0.00 0.00 53 1023.0
20190918180613 69 40 6.0 10.0 0.00 0.00 0.00 52 1023.0
20190918180452 69 46 7.0 10.0 0.00 0.00 0.00 53 1022.9
20190918180334 69 46 5.0 9.0 0.00 0.00 0.00 53 1022.9
20190918180224 69 5 3.0 8.0 0.00 0.00 0.00 54 1023.0
20190918180030 69 67 4.0 9.0 0.00 0.00 0.00 55 1022.9
20190918175907 69 49 4.0 9.0 0.00 0.00 0.00 54 1022.9
20190918175750 69 16 5.0 9.0 0.00 0.00 0.00 54 1022.9
20190918175633 69 38 5.0 9.0 0.00 0.00 0.00 56 1022.9
20190918175510 68 38 3.0 9.0 0.00 0.00 0.00 58 1022.9
20190918175353 68 32 5.0 9.0 0.00 0.00 0.00 57 1022.9
20190918175236 68 72 5.0 10.0 0.00 0.00 0.00 57 1022.9
20190918175119 68 49 5.0 15.0 0.00 0.00 0.00 57 1023.0
20190918174958 68 28 6.0 15.0 0.00 0.00 0.00 55 1023.0
20190918174841 68 33 5.0 15.0 0.00 0.00 0.00 55 1022.9
20190918174726 68 61 6.0 15.0 0.00 0.00 0.00 54 1022.9
20190918174608 68 54 6.0 15.0 0.00 0.00 0.00 55 1022.9
20190918174451 68 12 7.0 15.0 0.00 0.00 0.00 55 1022.9
20190918174334 68 38 9.0 15.0 0.00 0.00 0.00 55 1022.9
20190918174221 69 42 6.0 15.0 0.00 0.00 0.00 53 1022.8
20190918174101 69 57 4.0 11.0 0.00 0.00 0.00 54 1022.9
20190918173941 69 74 6.0 17.0 0.00 0.00 0.00 53 1022.9
20190918173826 69 56 5.0 17.0 0.00 0.00 0.00 53 1022.9
20190918173710 69 51 5.0 17.0 0.00 0.00 0.00 54 1022.9
20190918173553 69 30 5.0 17.0 0.00 0.00 0.00 53 1022.9
20190918173431 69 51 7.0 17.0 0.00 0.00 0.00 53 1023.0
20190918173315 69 51 8.0 17.0 0.00 0.00 0.00 53 1023.0
20190918173157 69 55 8.0 17.0 0.00 0.00 0.00 53 1023.0
20190918173040 69 51 5.0 10.0 0.00 0.00 0.00 54 1022.9
20190918172921 69 90 5.0 10.0 0.00 0.00 0.00 55 1022.9
20190918172810 69 15 5.0 10.0 0.00 0.00 0.00 56 1022.9
20190918172654 68 46 4.0 10.0 0.00 0.00 0.00 54 1022.9
20190918172537 68 50 4.0 10.0 0.00 0.00 0.00 56 1022.9
20190918172422 68 42 5.0 10.0 0.00 0.00 0.00 54 1022.9
20190918172308 68 53 7.0 10.0 0.00 0.00 0.00 55 1022.9
20190918172151 68 42 5.0 10.0 0.00 0.00 0.00 54 1022.9
20190918172036 68 38 5.0 9.0 0.00 0.00 0.00 56 1023.0
20190918171920 68 42 6.0 9.0 0.00 0.00 0.00 56 1023.0
20190918171802 68 32 5.0 9.0 0.00 0.00 0.00 56 1023.0
20190918171643 68 31 5.0 9.0 0.00 0.00 0.00 57 1023.0
20190918171521 68 61 5.0 9.0 0.00 0.00 0.00 58 1023.1
20190918171406 68 5 5.0 9.0 0.00 0.00 0.00 57 1023.1
20190918171250 68 40 5.0 11.0 0.00 0.00 0.00 56 1023.0
20190918171136 68 24 6.0 11.0 0.00 0.00 0.00 57 1023.1
20190918171014 68 26 5.0 11.0 0.00 0.00 0.00 57 1023.1